Regional Weather Roundup
Issued by NWS Goodland, KS

Home | Current Version | Previous Version | Graphics & Text | Print | Product List | Glossary On
Versions: 1 2 3 4 5 6 7 8 9 10 11 12 13 14 15 16 17 18 19 20 21 22 23 24 25 26 27 28 29 30 31 32 33 34 35 36 37 38 39 40 41 42 43 44 45 46 47 48 49 50
000
ASUS43 KGLD 210159
RWRGLD

GOODLAND FORECAST AREA HOURLY WEATHER ROUNDUP
NATIONAL WEATHER SERVICE GOODLAND KS
700 PM MST THU NOV 20 2014

...OFFICIAL OBSERVATIONS...

CITY           SKY/WX    TMP DP  RH WIND       PRES   REMARKS
GOODLAND KS    PTCLDY    28  15  58 SE9       30.03S
HILL CITY KS   CLEAR     30  20  66 E6        30.09R
IMPERIAL NEB   CLEAR     26  16  65 SE8       30.02R
MCCOOK NEB     PTCLDY    27  18  69 E6        30.07R
AKRON CO       CLEAR     37  14  38 S12       29.98R
BURLINGTON CO  MOCLDY    39  18  42 S9        30.01S
LIMON CO       NOT AVBL
$$

...UNOFFICIAL OBSERVATIONS...

CITY           SKY/WX    TMP DP  RH WIND       PRES   REMARKS
COLBY KS       CLEAR     30  23  74 E7        30.06R
GOVE KS          N/A     34  32  92 MISG        N/A
NORTON KS      CLEAR     28  16  59 E8        30.08R
SHARON SPRINGS   N/A     35  23  62 S7          N/A
TRIBUNE KS     PTCLDY    36  28  75 SE9       30.04R
TRENTON NEB      N/A     30  32 100 E10         N/A
YUMA CO          N/A     29  12  48 SE5         N/A
$$



USA.gov is the U.S. government's official web portal to all federal, state and local government web resources and services.